SCP
0 0 0 0 0 0 0 0 0 0 0 0 0 0 0 0 0 0 0 0 0 0 0 0 0 0 0 0 0 0 0 0 0 0 0 0 0 0 0 0 0 0 0
0 0 0 0 0 0 0 0 0 0 0 0 0 0 0 0 0 0 0 0 0 0 0 0 0 0 0 0 0 0 0 0 0 0 0 0 0 0 0 0 0 0 0
0 0 0 0 0 0 0 0 0 0 0 0 0 0 0 0 0 0 0 0 0 0 0 0 0 0 0 0 0 0 0 0 0 0 0 0 0 0 0 0 0 0 0
0 0 0 0 0 0 0 0 0 0 0 0 0 0 0 0 0 0 0 0 0 0 0 0 0 0 0 0 0 0 0 0 0 0 0 0 0 0 0 0 0 0 0
0 0 0 0 0 0 0 0 0 0 0 0 0 0 0 0 0 0 0 0 0 0 0 0 0 0 0 0 0 0 0 0 0 0 0 0 0 0 0 0 0 0 0
0 0 0 0 0 0 0 0 0 0 0 0 0 0 0 0 0 0 0 0 0 0 0 0 0 0 0 0 0 0 0 0 0 0 0 0 0 0 0 0 0 0 0
0 0 0 0 0 0 0 0 0 0 0 0 0 0 0 0 0 0 0 0 0 0 0 0 0 0 0 0 0 0 0 0 0 0 0 0 0 0 0 0 0 0 0
0 0 0 0 0 0 0 0 0 0 0 0 0 0 0 0 0 0 0 0 0 0 0 0 0 0 0 0 0 0 0 0 0 0 0 0 0 0 0 0 0 0 0
0 0 0 0 0 0 0 0 0 0 0 0 0 0 0 0 0 0 0 0 0 0 0 0 0 0 0 0 0 0 0 0 0 0 0 0 0 0 0 0 0 0 0
0 0 0 0 0 0 0 0 0 0 0 0 0 0 0 0 0 0 0 0 0 0 0 0 0 0 0 0 0 0 0 0 0 0 0 0 0 0 0 0 0 0 0
0 0 0 0 0 0 0 0 0 0 0 0 0 0 0 0 0 0 0 0 0 0 0 0 0 0 0 0 0 0 0 0 0 0 0 0 0 0 0 0 0 0 0
0 0 0 0 0 0 0 0 0 0 0 0 0 0 0 0 0 0 0 0 0 0 0 0 0 0 0 0 0 0 0 0 0 0 0 0 0 0 0 0 0 0 0
0 0 0 0 0 0 0 0 0 0 0 0 0 0 0 0 0 0 0 0 0 0 0 0 0 0 0 0 0 0 0 0 0 0 0 0 0 0 0 0 0 0 0
0 0 0 0 0 0 0 0 0 0 0 0 0 0 0 0 0 0 0 0 0 0 0 0 0 0 0 0 0 0 0 0 0 0 0 0 0 0 0 0 0 0 0
0 0 0 0 0 0 0 0 0 0 0 0 0 0 0 0 0 0 0 0 0 0 0 0 0 0 0 0 0 0 0 0 0 0 0 0 0 0 0 0 0 0 0
0 0 0 0 0 0 0 0 0 0 0 0 0 0 0 0 0 0 0 0 0 0 0 0 0 0 0 0 0 0 0 0 0 0 0 0 0 0 0 0 0 0 0
0 0 0 0 0 0 0 0 0 0 0 0 0 0 0 0 0 0 0 0 0 0 0 0 0 0 0 0 0 0 0 0 0 0 0 0 0 0 0 0 0 0 0
0 0 0 0 0 0 0 0 0 0 0 0 0 0 0 0 0 0 0 0 0 0 0 0 0 0 0 0 0 0 0 0 0 0 0 0 0 0 0 0 0 0 0
0 0 0 0 0 0 0 0 0 0 0 0 0 0 0 0 0 0 0 0 0 0 0 0 0 0 0 0 0 0 0 0 0 0 0 0 0 0 0 0 0 0 0
0 0 0 0 0 0 0 0 0 0 0 0 0 0 0 0 0 0 0 0 0 0 0 0 0 0 0 0 0 0 0 0 0 0 0 0 0 0 0 0 0 0 0
0 0 0 0 0 0 0 0 0 0 0 0 0 0 0 0 0 0 0 0 0 0 0 0 0 0 0 0 0 0 0 0 0 0 0 0 0 0 0 0 0 0 0
0 0 0 0 0 0 0 0 0 0 0 0 0 0 0 0 0 0 0 0 0 0 0 0 0 0 0 0 0 0 0 0 0 0 0 0 0 0 0 0 0 0 0
0 0 0 0 0 0 0 0 0 0 0 0 0 0 0 0 0 0 0 0 0 0 0 0 0 0 0 0 0 0 0 0 0 0 0 0 0 0 0 0 0 0 0
0 0 0 0 0 0 0 0 0 0 0 0 0 0 0 0 0 0 0 0 0 0 0 0 0 0 0 0 0 0 0 0 0 0 0 0 0 0 0 0 0 0 0
0 0 0 0 0 0 0 0 0 0 0 0 0 0 0 0 0 0 0 0 0 0 0 0 0 0 0 0 0 0 0 0 0 0 0 0 0 0 0 0 0 0 0
0 0 0 0 0 0 0 0 0 0 0 0 0 0 0 0 0 0 0 0 0 0 0 0 0 0 0 0 0 0 0 0 0 0 0 0 0 0 0 0 0 0 0
Wind_Speed_500mb
35 30 28 20 17 15 11 7 5 7 9 11 13 16 18 20 21 23 23 26 28 31 34 38 40 43 45 45 44 43 44 47 56 69 67 72 72 63 59 56 66 75 71
38 32 25 21 18 15 11 8 8 9 11 15 17 20 21 23 24 25 26 28 31 34 37 40 43 45 46 46 45 46 49 53 55 61 70 74 66 63 61 63 72 71 69
35 29 24 21 18 15 11 11 11 12 14 17 20 22 24 25 27 29 30 32 34 37 40 43 47 48 49 50 51 54 55 52 50 57 72 66 63 61 72 75 75 81 72
32 27 23 19 17 14 14 14 13 15 17 20 21 24 26 28 30 32 32 36 38 40 43 45 48 49 51 52 53 50 49 51 54 60 64 65 64 72 67 75 91 78 81
30 26 23 19 16 16 16 16 17 18 21 22 25 27 28 30 33 35 37 39 41 43 45 48 47 48 51 52 48 52 49 55 56 58 64 67 68 60 69 83 87 79 94
29 26 20 18 18 19 19 20 21 21 23 25 29 31 33 35 39 40 41 42 42 43 46 45 47 49 49 50 53 48 41 46 51 56 62 63 69 76 82 82 77 81 92
30 23 21 20 18 21 23 23 23 23 25 29 32 33 36 40 43 44 42 44 43 45 48 48 49 50 52 55 54 50 52 48 42 49 60 67 73 77 78 80 76 84 92
29 26 23 19 20 23 24 24 24 25 28 32 34 37 40 41 42 44 41 45 46 47 48 49 51 52 52 52 48 52 55 55 51 52 56 67 70 66 67 77 88 93 94
31 25 19 20 23 25 24 25 27 29 32 36 37 38 39 42 43 45 45 46 49 48 49 50 50 51 51 46 44 53 57 57 65 69 66 62 60 68 67 71 75 74 90
29 20 22 24 25 26 28 29 30 32 36 38 39 39 39 43 46 46 48 49 50 50 50 49 49 49 39 38 43 51 63 70 71 75 76 74 75 75 71 59 56 64 69
26 26 26 28 28 30 34 36 35 36 38 40 41 43 44 45 45 45 45 49 50 51 52 51 49 47 41 36 40 52 59 60 71 72 75 76 77 74 67 58 55 61 70
30 31 30 33 36 38 37 35 36 40 42 46 48 48 47 47 49 46 44 45 46 51 51 49 49 46 38 41 45 56 61 63 66 69 73 75 74 69 68 69 66 61 57
33 34 39 38 38 36 37 38 42 46 49 52 53 53 52 52 51 49 48 47 45 46 48 49 45 44 52 54 55 58 62 62 66 71 73 71 67 69 72 70 68 65 65
37 38 37 37 39 41 42 44 48 51 53 55 56 57 56 55 52 50 49 47 45 46 47 49 48 52 54 56 57 57 59 62 66 68 66 65 67 69 69 68 69 68 70
36 37 38 40 43 44 45 48 51 54 56 58 58 57 57 55 51 55 53 47 42 41 43 50 50 54 57 57 58 59 61 63 63 60 62 66 68 68 68 65 63 65 66
34 36 38 42 45 46 49 52 55 58 59 60 59 58 54 52 50 48 43 39 39 36 46 47 50 52 54 57 59 61 63 61 57 59 61 63 64 65 65 63 61 62 66
36 36 40 43 46 50 54 58 61 58 61 61 58 56 53 49 42 37 42 43 43 45 47 49 51 52 53 55 58 61 61 56 57 58 60 59 59 58 59 61 62 62 65
34 35 38 42 47 52 56 59 59 58 57 55 53 50 47 44 43 42 41 42 42 41 45 48 49 50 52 55 58 57 55 56 56 56 57 55 53 55 59 60 60 60 62
30 29 33 40 47 52 55 56 55 55 55 51 49 47 43 42 40 39 39 39 38 39 43 45 47 49 51 54 53 53 56 57 56 56 55 54 54 55 59 57 57 55 58
23 26 32 42 52 56 56 55 54 53 50 46 45 41 39 36 37 35 35 35 36 39 41 44 45 47 51 50 52 54 57 55 53 52 54 54 53 54 56 57 55 58 60
24 28 36 50 57 60 58 55 51 48 45 43 43 40 39 37 35 32 32 32 36 39 41 41 43 47 46 50 53 55 54 53 51 52 53 52 51 54 53 54 54 57 65
31 38 45 51 53 54 52 49 46 44 43 41 40 36 37 35 30 29 30 33 36 37 38 41 45 44 47 52 54 54 53 52 50 48 47 47 50 54 55 55 59 66 71
40 46 49 51 52 50 49 45 43 42 41 39 37 33 31 31 30 30 31 33 33 35 39 44 44 44 48 50 51 52 54 50 46 42 44 48 53 56 59 63 69 74 75
46 49 51 50 51 51 48 44 43 42 40 37 33 30 29 29 28 30 31 31 32 35 41 42 43 47 49 49 49 49 48 44 42 40 45 52 57 63 71 73 72 71 71
50 52 53 51 51 53 48 45 43 40 37 34 31 30 28 27 28 29 29 30 32 35 38 38 44 47 49 49 48 45 42 39 40 43 47 52 61 66 70 74 74 73 69
55 54 54 55 56 52 47 45 43 39 36 33 32 31 29 28 28 28 29 31 32 36 35 38 42 46 47 47 44 41 38 36 43 41 44 57 66 72 78 81 70 70 69
Wind_Direction_500mb
194 188 192 188 190 198 202 217 259 299 313 316 320 324 323 322 322 321 320 318 322 324 326 328 329 328 325 323 322 318 312 308 301 309 310 313 317 321 317 318 311 316 315
185 189 186 187 195 206 214 236 271 294 319 328 326 322 317 314 313 311 312 314 317 319 323 324 325 325 324 322 318 313 309 306 303 302 302 312 316 321 311 311 310 316 312
186 186 187 194 205 216 234 255 283 305 315 322 321 314 310 309 310 310 310 312 314 319 321 322 324 323 320 318 316 311 304 301 301 298 305 315 317 316 312 312 315 318 315
186 190 196 206 216 232 251 269 288 303 312 313 309 310 312 312 308 307 310 311 313 317 318 317 316 316 316 315 312 311 311 309 311 313 316 320 315 312 315 315 318 319 314
190 198 206 216 231 249 263 278 289 297 300 305 313 316 313 309 307 309 308 310 312 314 311 309 314 316 314 314 315 316 316 314 316 318 314 311 317 316 314 317 316 315 315
199 207 213 230 244 259 271 277 282 288 297 312 316 315 313 309 309 312 309 306 306 304 303 310 315 313 313 315 315 311 307 309 308 310 312 310 307 311 313 317 317 313 312
207 214 225 239 256 267 271 275 282 291 305 312 312 312 313 310 307 306 303 302 303 304 309 313 313 313 313 312 311 308 311 313 305 301 302 304 307 310 317 318 309 305 303
212 222 234 252 264 268 272 279 285 294 302 307 309 310 305 301 300 303 304 302 304 310 309 308 309 311 312 310 313 312 311 313 308 307 298 298 305 312 305 298 299 304 304
217 229 244 263 269 274 283 286 290 291 296 301 302 300 301 303 303 305 305 306 307 305 304 304 308 309 310 317 308 306 312 308 310 309 306 308 307 307 308 307 308 309 310
226 237 256 273 281 284 282 282 279 284 289 292 295 298 306 309 303 304 302 301 301 302 300 303 306 309 310 306 311 311 305 310 313 313 316 314 314 314 314 313 310 307 305
230 247 265 280 282 283 282 277 273 278 286 291 301 305 303 300 301 303 301 298 299 300 303 307 307 309 307 309 307 299 305 312 305 314 313 314 315 316 319 318 312 307 304
243 256 272 283 279 274 270 270 277 284 292 296 296 297 300 301 304 302 299 296 296 298 301 304 306 309 310 301 304 307 311 311 313 313 315 317 319 321 322 321 317 315 310
253 266 271 270 273 277 282 281 284 287 289 292 295 298 302 302 306 306 303 299 297 296 301 304 309 307 311 312 315 316 316 318 318 318 318 320 322 322 320 321 321 322 318
257 267 274 278 285 284 279 280 283 287 291 294 297 302 305 303 304 301 297 296 295 298 299 303 312 316 316 314 314 315 319 321 320 319 319 320 321 321 322 325 325 327 323
268 274 276 280 283 282 280 283 286 290 293 296 300 299 299 299 299 292 293 293 298 305 304 308 312 314 315 315 316 319 322 322 321 322 323 322 321 322 325 327 328 327 326
276 278 280 280 281 281 282 285 289 292 295 297 298 298 298 296 291 287 292 293 300 297 297 308 311 312 313 316 318 321 323 322 323 324 322 322 323 324 326 329 329 329 329
281 278 276 279 283 286 288 290 292 294 295 296 296 298 298 296 293 284 283 292 297 298 303 309 311 312 314 316 319 321 321 324 325 324 322 324 325 325 326 329 331 332 332
279 280 284 289 291 290 290 291 291 293 293 295 295 294 290 286 285 286 287 295 297 298 303 306 310 312 315 317 319 319 322 326 325 325 325 326 327 327 328 330 331 331 332
280 287 292 294 295 295 295 294 294 294 296 296 293 292 290 289 289 290 293 294 295 300 303 307 309 312 317 319 318 321 324 326 327 326 327 328 330 329 327 328 329 331 330
282 292 303 308 306 302 298 296 295 296 295 294 292 294 291 288 290 292 293 293 296 302 305 307 311 317 320 319 322 324 326 327 328 327 328 329 330 329 328 329 330 329 331
284 300 308 312 308 302 296 295 294 294 294 294 294 292 292 292 293 291 290 295 302 305 305 310 317 320 321 322 324 326 326 328 329 328 329 332 334 333 334 331 330 331 330
289 294 298 303 302 301 296 294 292 292 292 291 290 289 289 295 291 289 293 299 302 303 309 315 321 323 324 325 325 325 326 328 330 332 334 335 336 336 335 331 329 329 329
287 285 291 300 301 300 297 293 291 292 290 288 288 288 286 287 286 287 294 298 302 308 314 319 322 325 326 325 325 324 325 329 333 335 333 333 334 334 331 329 327 326 327
286 286 294 301 302 300 294 288 289 287 287 286 285 282 279 279 281 289 295 299 304 311 317 321 323 325 324 324 325 325 325 328 329 331 329 330 330 330 327 326 326 327 325
287 290 294 298 302 300 291 287 287 286 285 284 281 278 278 279 284 288 291 297 305 313 318 321 322 323 323 325 326 327 327 327 325 325 324 326 329 330 330 329 328 327 324
288 291 292 294 299 295 285 282 284 283 281 279 276 275 276 279 281 286 293 301 307 316 320 321 321 322 324 327 328 328 328 325 323 325 325 327 325 329 329 331 326 327 324
Wind_Speed_850mb
35 30 28 20 17 15 11 7 5 7 9 11 13 16 18 20 21 23 23 26 28 31 34 38 40 43 45 45 44 43 44 47 56 69 67 72 72 63 59 56 66 75 71
38 32 25 21 18 15 11 8 8 9 11 15 17 20 21 23 24 25 26 28 31 34 37 40 43 45 46 46 45 46 49 53 55 61 70 74 66 63 61 63 72 71 69
35 29 24 21 18 15 11 11 11 12 14 17 20 22 24 25 27 29 30 32 34 37 40 43 47 48 49 50 51 54 55 52 50 57 72 66 63 61 72 75 75 81 72
32 27 23 19 17 14 14 14 13 15 17 20 21 24 26 28 30 32 32 36 38 40 43 45 48 49 51 52 53 50 49 51 54 60 64 65 64 72 67 75 91 78 81
30 26 23 19 16 16 16 16 17 18 21 22 25 27 28 30 33 35 37 39 41 43 45 48 47 48 51 52 48 52 49 55 56 58 64 67 68 60 69 83 87 79 94
29 26 20 18 18 19 19 20 21 21 23 25 29 31 33 35 39 40 41 42 42 43 46 45 47 49 49 50 53 48 41 46 51 56 62 63 69 76 82 82 77 81 92
30 23 21 20 18 21 23 23 23 23 25 29 32 33 36 40 43 44 42 44 43 45 48 48 49 50 52 55 54 50 52 48 42 49 60 67 73 77 78 80 76 84 92
29 26 23 19 20 23 24 24 24 25 28 32 34 37 40 41 42 44 41 45 46 47 48 49 51 52 52 52 48 52 55 55 51 52 56 67 70 66 67 77 88 93 94
31 25 19 20 23 25 24 25 27 29 32 36 37 38 39 42 43 45 45 46 49 48 49 50 50 51 51 46 44 53 57 57 65 69 66 62 60 68 67 71 75 74 90
29 20 22 24 25 26 28 29 30 32 36 38 39 39 39 43 46 46 48 49 50 50 50 49 49 49 39 38 43 51 63 70 71 75 76 74 75 75 71 59 56 64 69
26 26 26 28 28 30 34 36 35 36 38 40 41 43 44 45 45 45 45 49 50 51 52 51 49 47 41 36 40 52 59 60 71 72 75 76 77 74 67 58 55 61 70
30 31 30 33 36 38 37 35 36 40 42 46 48 48 47 47 49 46 44 45 46 51 51 49 49 46 38 41 45 56 61 63 66 69 73 75 74 69 68 69 66 61 57
33 34 39 38 38 36 37 38 42 46 49 52 53 53 52 52 51 49 48 47 45 46 48 49 45 44 52 54 55 58 62 62 66 71 73 71 67 69 72 70 68 65 65
37 38 37 37 39 41 42 44 48 51 53 55 56 57 56 55 52 50 49 47 45 46 47 49 48 52 54 56 57 57 59 62 66 68 66 65 67 69 69 68 69 68 70
36 37 38 40 43 44 45 48 51 54 56 58 58 57 57 55 51 55 53 47 42 41 43 50 50 54 57 57 58 59 61 63 63 60 62 66 68 68 68 65 63 65 66
34 36 38 42 45 46 49 52 55 58 59 60 59 58 54 52 50 48 43 39 39 36 46 47 50 52 54 57 59 61 63 61 57 59 61 63 64 65 65 63 61 62 66
36 36 40 43 46 50 54 58 61 58 61 61 58 56 53 49 42 37 42 43 43 45 47 49 51 52 53 55 58 61 61 56 57 58 60 59 59 58 59 61 62 62 65
34 35 38 42 47 52 56 59 59 58 57 55 53 50 47 44 43 42 41 42 42 41 45 48 49 50 52 55 58 57 55 56 56 56 57 55 53 55 59 60 60 60 62
30 29 33 40 47 52 55 56 55 55 55 51 49 47 43 42 40 39 39 39 38 39 43 45 47 49 51 54 53 53 56 57 56 56 55 54 54 55 59 57 57 55 58
23 26 32 42 52 56 56 55 54 53 50 46 45 41 39 36 37 35 35 35 36 39 41 44 45 47 51 50 52 54 57 55 53 52 54 54 53 54 56 57 55 58 60
24 28 36 50 57 60 58 55 51 48 45 43 43 40 39 37 35 32 32 32 36 39 41 41 43 47 46 50 53 55 54 53 51 52 53 52 51 54 53 54 54 57 65
31 38 45 51 53 54 52 49 46 44 43 41 40 36 37 35 30 29 30 33 36 37 38 41 45 44 47 52 54 54 53 52 50 48 47 47 50 54 55 55 59 66 71
40 46 49 51 52 50 49 45 43 42 41 39 37 33 31 31 30 30 31 33 33 35 39 44 44 44 48 50 51 52 54 50 46 42 44 48 53 56 59 63 69 74 75
46 49 51 50 51 51 48 44 43 42 40 37 33 30 29 29 28 30 31 31 32 35 41 42 43 47 49 49 49 49 48 44 42 40 45 52 57 63 71 73 72 71 71
50 52 53 51 51 53 48 45 43 40 37 34 31 30 28 27 28 29 29 30 32 35 38 38 44 47 49 49 48 45 42 39 40 43 47 52 61 66 70 74 74 73 69
55 54 54 55 56 52 47 45 43 39 36 33 32 31 29 28 28 28 29 31 32 36 35 38 42 46 47 47 44 41 38 36 43 41 44 57 66 72 78 81 70 70 69
Wind_Direction_850mb
194 188 192 188 190 198 202 217 259 299 313 316 320 324 323 322 322 321 320 318 322 324 326 328 329 328 325 323 322 318 312 308 301 309 310 313 317 321 317 318 311 316 315
185 189 186 187 195 206 214 236 271 294 319 328 326 322 317 314 313 311 312 314 317 319 323 324 325 325 324 322 318 313 309 306 303 302 302 312 316 321 311 311 310 316 312
186 186 187 194 205 216 234 255 283 305 315 322 321 314 310 309 310 310 310 312 314 319 321 322 324 323 320 318 316 311 304 301 301 298 305 315 317 316 312 312 315 318 315
186 190 196 206 216 232 251 269 288 303 312 313 309 310 312 312 308 307 310 311 313 317 318 317 316 316 316 315 312 311 311 309 311 313 316 320 315 312 315 315 318 319 314
190 198 206 216 231 249 263 278 289 297 300 305 313 316 313 309 307 309 308 310 312 314 311 309 314 316 314 314 315 316 316 314 316 318 314 311 317 316 314 317 316 315 315
199 207 213 230 244 259 271 277 282 288 297 312 316 315 313 309 309 312 309 306 306 304 303 310 315 313 313 315 315 311 307 309 308 310 312 310 307 311 313 317 317 313 312
207 214 225 239 256 267 271 275 282 291 305 312 312 312 313 310 307 306 303 302 303 304 309 313 313 313 313 312 311 308 311 313 305 301 302 304 307 310 317 318 309 305 303
212 222 234 252 264 268 272 279 285 294 302 307 309 310 305 301 300 303 304 302 304 310 309 308 309 311 312 310 313 312 311 313 308 307 298 298 305 312 305 298 299 304 304
217 229 244 263 269 274 283 286 290 291 296 301 302 300 301 303 303 305 305 306 307 305 304 304 308 309 310 317 308 306 312 308 310 309 306 308 307 307 308 307 308 309 310
226 237 256 273 281 284 282 282 279 284 289 292 295 298 306 309 303 304 302 301 301 302 300 303 306 309 310 306 311 311 305 310 313 313 316 314 314 314 314 313 310 307 305
230 247 265 280 282 283 282 277 273 278 286 291 301 305 303 300 301 303 301 298 299 300 303 307 307 309 307 309 307 299 305 312 305 314 313 314 315 316 319 318 312 307 304
243 256 272 283 279 274 270 270 277 284 292 296 296 297 300 301 304 302 299 296 296 298 301 304 306 309 310 301 304 307 311 311 313 313 315 317 319 321 322 321 317 315 310
253 266 271 270 273 277 282 281 284 287 289 292 295 298 302 302 306 306 303 299 297 296 301 304 309 307 311 312 315 316 316 318 318 318 318 320 322 322 320 321 321 322 318
257 267 274 278 285 284 279 280 283 287 291 294 297 302 305 303 304 301 297 296 295 298 299 303 312 316 316 314 314 315 319 321 320 319 319 320 321 321 322 325 325 327 323
268 274 276 280 283 282 280 283 286 290 293 296 300 299 299 299 299 292 293 293 298 305 304 308 312 314 315 315 316 319 322 322 321 322 323 322 321 322 325 327 328 327 326
276 278 280 280 281 281 282 285 289 292 295 297 298 298 298 296 291 287 292 293 300 297 297 308 311 312 313 316 318 321 323 322 323 324 322 322 323 324 326 329 329 329 329
281 278 276 279 283 286 288 290 292 294 295 296 296 298 298 296 293 284 283 292 297 298 303 309 311 312 314 316 319 321 321 324 325 324 322 324 325 325 326 329 331 332 332
279 280 284 289 291 290 290 291 291 293 293 295 295 294 290 286 285 286 287 295 297 298 303 306 310 312 315 317 319 319 322 326 325 325 325 326 327 327 328 330 331 331 332
280 287 292 294 295 295 295 294 294 294 296 296 293 292 290 289 289 290 293 294 295 300 303 307 309 312 317 319 318 321 324 326 327 326 327 328 330 329 327 328 329 331 330
282 292 303 308 306 302 298 296 295 296 295 294 292 294 291 288 290 292 293 293 296 302 305 307 311 317 320 319 322 324 326 327 328 327 328 329 330 329 328 329 330 329 331
284 300 308 312 308 302 296 295 294 294 294 294 294 292 292 292 293 291 290 295 302 305 305 310 317 320 321 322 324 326 326 328 329 328 329 332 334 333 334 331 330 331 330
289 294 298 303 302 301 296 294 292 292 292 291 290 289 289 295 291 289 293 299 302 303 309 315 321 323 324 325 325 325 326 328 330 332 334 335 336 336 335 331 329 329 329
287 285 291 300 301 300 297 293 291 292 290 288 288 288 286 287 286 287 294 298 302 308 314 319 322 325 326 325 325 324 325 329 333 335 333 333 334 334 331 329 327 326 327
286 286 294 301 302 300 294 288 289 287 287 286 285 282 279 279 281 289 295 299 304 311 317 321 323 325 324 324 325 325 325 328 329 331 329 330 330 330 327 326 326 327 325
287 290 294 298 302 300 291 287 287 286 285 284 281 278 278 279 284 288 291 297 305 313 318 321 322 323 323 325 326 327 327 327 325 325 324 326 329 330 330 329 328 327 324
288 291 292 294 299 295 285 282 284 283 281 279 276 275 276 279 281 286 293 301 307 316 320 321 321 322 324 327 328 328 328 325 323 325 325 327 325 329 329 331 326 327 324